• In Czech Republic
  • List of Countries
  • For 7 days
  • Water Temperature
  • Satellite Maps
  • Weather Map
  • Weather Widgets
  • user-avatar
    Login

    Hourly Weather Kula

    Today, 21 October, Saturday

    Time Temperature Precipitation Wind Pressure Humidity
    00:00 +15°C° 0 mm 1 mps 705 mmHg 47%
    01:00 +15°C° 0 mm 1 mps 705 mmHg 49%
    02:00 +15°C° 0 mm 1 mps 705 mmHg 54%
    03:00 +14°C° 0 mm 1 mps 705 mmHg 56%
    04:00 +14°C° 0 mm 1 mps 705 mmHg 57%
    05:00 +13°C° 0 mm 1 mps 704 mmHg 58%
    06:00 +14°C° 0 mm 0 mps 705 mmHg 54%
    07:00 +15°C° 0 mm 0 mps 705 mmHg 49%
    08:00 +17°C° 0 mm 0 mps 705 mmHg 44%
    09:00 +18°C° 0 mm 0 mps 705 mmHg 40%
    10:00 +22°C° 0 mm 1 mps 705 mmHg 35%
    11:00 +23°C° 0 mm 1 mps 706 mmHg 31%
    12:00 +24°C° 0 mm 1 mps 705 mmHg 30%
    13:00 +25°C° 0 mm 1 mps 705 mmHg 28%
    14:00 +25°C° 0 mm 2 mps 705 mmHg 26%
    15:00 +24°C° 0 mm 2 mps 704 mmHg 29%
    16:00 +23°C° 0 mm 2 mps 704 mmHg 31%
    17:00 +21°C° 0 mm 2 mps 704 mmHg 34%
    18:00 +20°C° 0 mm 2 mps 704 mmHg 37%
    19:00 +18°C° 0 mm 2 mps 704 mmHg 39%
    20:00 +17°C° 0 mm 2 mps 704 mmHg 42%
    21:00 +16°C° 0 mm 1 mps 704 mmHg 44%
    22:00 +16°C° 0 mm 1 mps 704 mmHg 46%
    23:00 +15°C° 0 mm 1 mps 704 mmHg 49%

    Tomorrow, 22 October, Sunday

    Time Temperature Precipitation Wind Pressure Humidity
    00:00 +14°C° 0 mm 1 mps 703 mmHg 50%
    01:00 +14°C° 0 mm 1 mps 703 mmHg 52%
    02:00 +13°C° 0 mm 1 mps 703 mmHg 54%
    03:00 +13°C° 0 mm 1 mps 703 mmHg 55%
    04:00 +13°C° 0 mm 1 mps 703 mmHg 55%
    05:00 +11°C° 0 mm 0 mps 702 mmHg 56%
    06:00 +14°C° 0 mm 1 mps 703 mmHg 51%
    07:00 +15°C° 0 mm 1 mps 703 mmHg 46%
    08:00 +18°C° 0 mm 1 mps 704 mmHg 42%
    09:00 +17°C° 0 mm 0 mps 704 mmHg 37%
    10:00 +19°C° 0 mm 0 mps 704 mmHg 32%
    11:00 +21°C° 0 mm 0 mps 704 mmHg 27%
    12:00 +23°C° 0 mm 1 mps 704 mmHg 25%
    13:00 +24°C° 0 mm 1 mps 704 mmHg 22%
    14:00 +25°C° 0 mm 1 mps 703 mmHg 20%
    15:00 +24°C° 0 mm 1 mps 703 mmHg 22%
    16:00 +22°C° 0 mm 1 mps 703 mmHg 24%
    17:00 +21°C° 0 mm 1 mps 702 mmHg 27%
    18:00 +20°C° 0 mm 1 mps 702 mmHg 28%
    19:00 +18°C° 0 mm 1 mps 702 mmHg 30%
    20:00 +16°C° 0 mm 1 mps 702 mmHg 31%
    21:00 +16°C° 0 mm 1 mps 702 mmHg 33%
    22:00 +15°C° 0 mm 1 mps 702 mmHg 34%
    23:00 +14°C° 0 mm 1 mps 702 mmHg 36%

    Day after tomorrow, 23 October, Monday

    Time Temperature Precipitation Wind Pressure Humidity
    00:00 +14°C° 0 mm 1 mps 702 mmHg 37%
    01:00 +14°C° 0 mm 1 mps 702 mmHg 38%
    02:00 +13°C° 0 mm 1 mps 701 mmHg 40%
    03:00 +13°C° 0 mm 1 mps 701 mmHg 40%
    04:00 +13°C° 0 mm 1 mps 701 mmHg 41%
    05:00 +12°C° 0 mm 1 mps 700 mmHg 42%
    06:00 +14°C° 0 mm 1 mps 701 mmHg 39%
    07:00 +15°C° 0 mm 1 mps 701 mmHg 36%
    08:00 +18°C° 0 mm 1 mps 701 mmHg 32%
    09:00 +19°C° 0 mm 1 mps 701 mmHg 30%
    10:00 +20°C° 0 mm 2 mps 701 mmHg 27%
    11:00 +23°C° 0 mm 2 mps 701 mmHg 24%
    12:00 +24°C° 0 mm 3 mps 701 mmHg 23%
    13:00 +24°C° 0 mm 3 mps 700 mmHg 22%
    14:00 +25°C° 0 mm 4 mps 700 mmHg 22%
    15:00 +23°C° 0 mm 4 mps 700 mmHg 25%
    16:00 +21°C° 0 mm 3 mps 699 mmHg 28%
    17:00 +20°C° 0 mm 3 mps 699 mmHg 31%
    18:00 +19°C° 0 mm 2 mps 699 mmHg 35%
    19:00 +18°C° 0 mm 2 mps 699 mmHg 38%
    20:00 +16°C° 0 mm 1 mps 699 mmHg 42%
    21:00 +16°C° 0 mm 2 mps 699 mmHg 45%
    22:00 +15°C° 0 mm 2 mps 698 mmHg 48%
    23:00 +15°C° 0 mm 2 mps 698 mmHg 51%

    24 October, Tuesday

    Time Temperature Precipitation Wind Pressure Humidity
    00:00 +15°C° 0 mm 2 mps 698 mmHg 54%
    01:00 +14°C° 0 mm 2 mps 698 mmHg 57%
    02:00 +14°C° 0 mm 2 mps 698 mmHg 61%
    03:00 +14°C° 0 mm 2 mps 698 mmHg 63%
    04:00 +14°C° 0 mm 2 mps 697 mmHg 66%
    05:00 +13°C° 0 mm 3 mps 697 mmHg 69%
    06:00 +14°C° 0 mm 3 mps 697 mmHg 68%
    07:00 +14°C° 0 mm 3 mps 698 mmHg 68%
    08:00 +15°C° 0 mm 4 mps 698 mmHg 67%
    09:00 +17°C° 0.1 mm 4 mps 698 mmHg 59%
    10:00 +19°C° 0.1 mm 5 mps 698 mmHg 51%
    11:00 +20°C° 0.1 mm 6 mps 698 mmHg 44%
    12:00 +21°C° 0.1 mm 6 mps 698 mmHg 43%
    13:00 +21°C° 0.1 mm 6 mps 698 mmHg 42%
    14:00 +22°C° 0.1 mm 6 mps 698 mmHg 41%
    15:00 +21°C° 0.2 mm 6 mps 698 mmHg 46%
    16:00 +19°C° 0.2 mm 6 mps 697 mmHg 51%
    17:00 +17°C° 0.2 mm 6 mps 697 mmHg 56%
    18:00 +16°C° 0.4 mm 5 mps 697 mmHg 61%
    19:00 +15°C° 0.4 mm 5 mps 698 mmHg 66%
    20:00 +14°C° 0.4 mm 4 mps 698 mmHg 70%
    21:00 +14°C° 0.3 mm 4 mps 698 mmHg 72%
    22:00 +14°C° 0.3 mm 4 mps 698 mmHg 74%
    23:00 +14°C° 0.3 mm 4 mps 698 mmHg 75%

    25 October, Wednesday

    Time Temperature Precipitation Wind Pressure Humidity
    00:00 +13°C° 0.3 mm 3 mps 698 mmHg 77%
    01:00 +13°C° 0.3 mm 3 mps 698 mmHg 79%
    02:00 +14°C° 0.3 mm 2 mps 698 mmHg 81%
    03:00 +13°C° 0.3 mm 2 mps 698 mmHg 83%
    04:00 +13°C° 0.3 mm 2 mps 698 mmHg 85%
    05:00 +13°C° 0.3 mm 2 mps 698 mmHg 87%
    06:00 +13°C° 0.2 mm 2 mps 698 mmHg 84%
    07:00 +14°C° 0.2 mm 2 mps 699 mmHg 81%
    08:00 +14°C° 0.2 mm 2 mps 699 mmHg 78%
    09:00 +15°C° 0.1 mm 2 mps 700 mmHg 70%
    10:00 +17°C° 0.1 mm 2 mps 700 mmHg 62%
    11:00 +18°C° 0.1 mm 2 mps 701 mmHg 54%
    12:00 +18°C° 0.4 mm 2 mps 700 mmHg 52%
    13:00 +18°C° 0.4 mm 2 mps 700 mmHg 49%
    14:00 +18°C° 0.4 mm 2 mps 700 mmHg 46%
    15:00 +18°C° 0.4 mm 2 mps 700 mmHg 49%
    16:00 +17°C° 0.4 mm 2 mps 701 mmHg 52%
    17:00 +16°C° 0.4 mm 2 mps 701 mmHg 55%
    18:00 +16°C° 0.2 mm 2 mps 701 mmHg 59%
    19:00 +15°C° 0.2 mm 2 mps 702 mmHg 63%
    20:00 +14°C° 0.2 mm 2 mps 702 mmHg 67%
    21:00 +14°C° 0.2 mm 2 mps 702 mmHg 70%
    22:00 +13°C° 0.2 mm 2 mps 703 mmHg 73%
    23:00 +13°C° 0.2 mm 1 mps 703 mmHg 77%

    26 October, Thursday

    Time Temperature Precipitation Wind Pressure Humidity
    00:00 +12°C° 0.2 mm 1 mps 703 mmHg 79%
    01:00 +12°C° 0.2 mm 1 mps 703 mmHg 81%
    02:00 +12°C° 0.2 mm 1 mps 703 mmHg 83%
    03:00 +11°C° 0.1 mm 1 mps 703 mmHg 84%
    04:00 +11°C° 0.1 mm 1 mps 703 mmHg 85%
    05:00 +11°C° 0.1 mm 1 mps 703 mmHg 85%
    06:00 +11°C° 0.1 mm 1 mps 704 mmHg 83%
    07:00 +12°C° 0.1 mm 2 mps 704 mmHg 80%
    08:00 +12°C° 0.1 mm 2 mps 704 mmHg 77%
    09:00 +13°C° 0.1 mm 2 mps 705 mmHg 72%
    10:00 +14°C° 0.1 mm 2 mps 705 mmHg 67%
    11:00 +15°C° 0.1 mm 2 mps 705 mmHg 62%
    12:00 +15°C° 0.3 mm 2 mps 705 mmHg 61%
    13:00 +15°C° 0.3 mm 2 mps 705 mmHg 60%
    14:00 +16°C° 0.3 mm 3 mps 705 mmHg 59%
    15:00 +14°C° 0.2 mm 3 mps 705 mmHg 61%
    16:00 +14°C° 0.2 mm 3 mps 705 mmHg 63%
    17:00 +13°C° 0.2 mm 3 mps 705 mmHg 64%
    18:00 +12°C° 0 mm 3 mps 705 mmHg 67%
    19:00 +12°C° 0 mm 3 mps 705 mmHg 71%
    20:00 +11°C° 0 mm 3 mps 706 mmHg 74%
    21:00 +10°C° 0 mm 3 mps 706 mmHg 75%
    22:00 +10°C° 0 mm 3 mps 706 mmHg 77%
    23:00 +10°C° 0 mm 3 mps 706 mmHg 78%
    Show more